IBE07FE LOWW-LEMD

Flight info

Callsign IBE07FE
Flight time 2h 42m
Altitude 36000
Route OSPEN DCT ABRUK DCT SETAL DCT DETSA/N0455F350 DCT SUMIR/N0454F370 DCT GEKBA DCT VAMTU DCT KOLON DCT GANGU DCT PADKO DCT DIVKO DCT NILDU DCT NENDA N975 ADUXO
Aircraft A320/M-SDE3FGHIRWY/LB1

Departure

Time 2026-05-06 14:29
Airport Vienna International Airport (LOWW)

Arrival

Time 2026-05-06 17:11
Airport Adolfo Suárez Madrid–Barajas Airport (LEMD)
Time Latitude Longitude Altitude Speed Heading
2026-05-06 13:57 48.11909 16.56710 599 ft 0 kts 205°
2026-05-06 14:20 48.11927 16.56722 598 ft 4 kts 205°
2026-05-06 14:20 48.11951 16.56738 597 ft 4 kts 195°
2026-05-06 14:20 48.11977 16.56743 596 ft 4 kts 159°
2026-05-06 14:21 48.11990 16.56729 596 ft 0 kts 116°
2026-05-06 14:24 48.11985 16.56744 596 ft 4 kts 116°
2026-05-06 14:24 48.11966 16.56802 597 ft 9 kts 116°
2026-05-06 14:24 48.11934 16.56901 599 ft 13 kts 116°
2026-05-06 14:24 48.11888 16.57040 601 ft 17 kts 115°
2026-05-06 14:25 48.11854 16.57209 611 ft 17 kts 102°
2026-05-06 14:25 48.11811 16.57364 614 ft 17 kts 103°
2026-05-06 14:25 48.11836 16.57546 614 ft 18 kts 74°
2026-05-06 14:25 48.11855 16.57647 612 ft 0 kts 74°
2026-05-06 14:27 48.11858 16.57664 608 ft 6 kts 77°
2026-05-06 14:27 48.11853 16.57791 611 ft 17 kts 108°
2026-05-06 14:28 48.11772 16.57907 613 ft 15 kts 162°
2026-05-06 14:28 48.11684 16.57946 618 ft 15 kts 164°
2026-05-06 14:28 48.11394 16.58067 613 ft 77 kts 164°
2026-05-06 14:28 48.10686 16.58364 602 ft 132 kts 164°
2026-05-06 14:29 48.09673 16.58791 807 ft 157 kts 166°
2026-05-06 14:29 48.08620 16.59221 1505 ft 158 kts 168°
2026-05-06 14:29 48.07544 16.59663 2057 ft 169 kts 166°
2026-05-06 14:29 48.06332 16.60081 2365 ft 189 kts 180°
2026-05-06 14:30 48.05030 16.59414 2636 ft 216 kts 215°
2026-05-06 14:30 48.03886 16.57778 3102 ft 239 kts 225°
2026-05-06 14:30 48.02780 16.55859 3907 ft 246 kts 227°
2026-05-06 14:30 48.01672 16.53903 4852 ft 247 kts 227°
2026-05-06 14:31 48.00538 16.51960 5733 ft 250 kts 226°
2026-05-06 14:31 47.99363 16.50016 6600 ft 254 kts 226°
2026-05-06 14:31 47.98157 16.48075 7452 ft 256 kts 226°
2026-05-06 14:31 47.96929 16.46129 8284 ft 259 kts 227°
2026-05-06 14:32 47.95938 16.43866 9114 ft 265 kts 244°
2026-05-06 14:32 47.95385 16.41214 9911 ft 270 kts 253°
2026-05-06 14:32 47.94899 16.38462 10456 ft 284 kts 252°
2026-05-06 14:32 47.94369 16.35508 10686 ft 307 kts 252°
2026-05-06 14:33 47.93798 16.32362 10881 ft 328 kts 252°
2026-05-06 14:33 47.93187 16.28986 11426 ft 336 kts 253°
2026-05-06 14:33 47.92585 16.25644 12100 ft 341 kts 253°
2026-05-06 14:33 47.91965 16.22207 12795 ft 345 kts 252°
2026-05-06 14:34 47.91336 16.18743 13490 ft 348 kts 253°
2026-05-06 14:34 47.90697 16.15242 14122 ft 352 kts 253°
2026-05-06 14:34 47.90051 16.11705 14747 ft 355 kts 253°
2026-05-06 14:34 47.89401 16.08151 15395 ft 357 kts 253°
2026-05-06 14:35 47.88744 16.04562 15998 ft 360 kts 252°
2026-05-06 14:35 47.88048 16.00967 16613 ft 362 kts 249°
2026-05-06 14:35 47.86975 15.97581 17259 ft 363 kts 237°
2026-05-06 14:35 47.85454 15.94567 17871 ft 365 kts 227°
2026-05-06 14:36 47.83551 15.92064 18464 ft 367 kts 218°
2026-05-06 14:36 47.81508 15.89762 19004 ft 370 kts 218°
2026-05-06 14:36 47.79456 15.87451 19561 ft 372 kts 218°
2026-05-06 14:36 47.77389 15.85118 20098 ft 374 kts 218°
2026-05-06 14:37 47.75314 15.82774 20587 ft 376 kts 218°
2026-05-06 14:37 47.73225 15.80416 21137 ft 378 kts 218°
2026-05-06 14:37 47.71130 15.78054 21618 ft 380 kts 218°
2026-05-06 14:37 47.69021 15.75685 22099 ft 382 kts 218°
2026-05-06 14:38 47.66891 15.73292 22536 ft 385 kts 217°
2026-05-06 14:38 47.64744 15.70881 22944 ft 388 kts 218°
2026-05-06 14:38 47.62581 15.68455 23387 ft 391 kts 218°
2026-05-06 14:38 47.60409 15.66017 23767 ft 393 kts 218°
2026-05-06 14:39 47.58216 15.63560 24132 ft 395 kts 218°
2026-05-06 14:39 47.56014 15.61098 24500 ft 397 kts 218°
2026-05-06 14:39 47.53808 15.58632 24858 ft 399 kts 218°
2026-05-06 14:39 47.51621 15.56108 25206 ft 400 kts 222°
2026-05-06 14:40 47.49712 15.53106 25555 ft 402 kts 232°
2026-05-06 14:40 47.48210 15.49610 25914 ft 404 kts 242°
2026-05-06 14:40 47.47181 15.45793 26257 ft 407 kts 251°
2026-05-06 14:40 47.46402 15.41756 26595 ft 409 kts 252°
2026-05-06 14:41 47.45621 15.37717 26910 ft 410 kts 252°
2026-05-06 14:41 47.44829 15.33663 27212 ft 411 kts 251°
2026-05-06 14:41 47.44031 15.29607 27508 ft 412 kts 251°
2026-05-06 14:41 47.43238 15.25586 27764 ft 414 kts 251°
2026-05-06 14:42 47.42421 15.21445 28003 ft 416 kts 251°
2026-05-06 14:42 47.41621 15.17389 28275 ft 418 kts 251°
2026-05-06 14:42 47.40809 15.13272 28539 ft 419 kts 251°
2026-05-06 14:42 47.39989 15.09120 28789 ft 421 kts 251°
2026-05-06 14:43 47.39168 15.04972 29046 ft 422 kts 251°
2026-05-06 14:43 47.38345 15.00828 29387 ft 421 kts 251°
2026-05-06 14:43 47.37522 14.96692 29739 ft 420 kts 251°
2026-05-06 14:43 47.36700 14.92565 30075 ft 418 kts 251°
2026-05-06 14:44 47.36191 14.90025 30274 ft 417 kts 251°
2026-05-06 14:44 47.35365 14.85935 30595 ft 415 kts 251°
2026-05-06 14:44 47.34548 14.81861 30896 ft 413 kts 251°
2026-05-06 14:45 47.32932 14.73774 31642 ft 409 kts 251°
2026-05-06 14:45 47.32125 14.69759 31990 ft 407 kts 251°
2026-05-06 14:45 47.31322 14.65771 32351 ft 405 kts 251°
2026-05-06 14:45 47.30523 14.61811 32642 ft 403 kts 251°
2026-05-06 14:46 47.29720 14.57852 32977 ft 402 kts 251°
2026-05-06 14:46 47.28917 14.53920 33307 ft 400 kts 251°
2026-05-06 14:46 47.28116 14.50010 33657 ft 398 kts 251°
2026-05-06 14:46 47.27318 14.46112 33978 ft 397 kts 251°
2026-05-06 14:47 47.26522 14.42221 34248 ft 396 kts 251°
2026-05-06 14:47 47.25735 14.38385 34478 ft 396 kts 251°
2026-05-06 14:47 47.24941 14.34508 34688 ft 396 kts 251°
2026-05-06 14:47 47.24143 14.30625 34906 ft 396 kts 251°
2026-05-06 14:48 47.23343 14.26743 35110 ft 396 kts 250°
2026-05-06 14:48 47.22542 14.22869 35326 ft 396 kts 250°
2026-05-06 14:48 47.21738 14.18987 35518 ft 396 kts 250°
2026-05-06 14:48 47.21204 14.16417 35634 ft 397 kts 250°
2026-05-06 14:49 47.20125 14.11233 35824 ft 397 kts 250°
2026-05-06 14:49 47.18772 14.04761 35859 ft 399 kts 250°
2026-05-06 14:50 47.17140 13.96952 35859 ft 399 kts 250°
2026-05-06 14:50 47.15510 13.89159 35859 ft 399 kts 250°
2026-05-06 14:51 47.13869 13.81384 35859 ft 399 kts 250°
2026-05-06 14:51 47.12223 13.73616 35853 ft 399 kts 250°
2026-05-06 14:52 47.10571 13.65837 35851 ft 399 kts 250°
2026-05-06 14:52 47.08916 13.58075 35839 ft 398 kts 250°
2026-05-06 14:53 47.07248 13.50306 35835 ft 399 kts 250°
2026-05-06 14:53 47.05579 13.42535 35834 ft 399 kts 250°
2026-05-06 14:54 47.03909 13.34809 35838 ft 400 kts 250°
2026-05-06 14:54 47.02228 13.27032 35844 ft 401 kts 250°
2026-05-06 14:55 47.00534 13.19246 35838 ft 401 kts 250°
2026-05-06 14:55 46.98844 13.11457 35847 ft 401 kts 250°
2026-05-06 14:56 46.97146 13.03681 35848 ft 402 kts 249°
2026-05-06 14:56 46.95432 12.95891 35849 ft 401 kts 250°
2026-05-06 14:57 46.93707 12.88121 35845 ft 401 kts 249°
2026-05-06 14:57 46.91984 12.80350 35846 ft 402 kts 249°
2026-05-06 14:58 46.90267 12.72599 35848 ft 401 kts 249°
2026-05-06 14:58 46.88552 12.64950 35864 ft 401 kts 249°
2026-05-06 14:59 46.86824 12.57262 35873 ft 400 kts 249°
2026-05-06 14:59 46.85091 12.49537 35889 ft 400 kts 249°
2026-05-06 15:00 46.83359 12.41818 35906 ft 400 kts 249°
2026-05-06 15:00 46.81612 12.34105 35926 ft 400 kts 249°
2026-05-06 15:01 46.79351 12.26794 35936 ft 394 kts 234°
2026-05-06 15:01 46.75895 12.20615 35934 ft 393 kts 229°
2026-05-06 15:02 46.72350 12.14543 35930 ft 393 kts 229°
2026-05-06 15:02 46.70574 12.11502 35722 ft 393 kts 229°
2026-05-06 15:02 46.68805 12.08469 35475 ft 392 kts 229°
2026-05-06 15:02 46.67037 12.05439 35211 ft 391 kts 229°
2026-05-06 15:03 46.65299 12.02468 34980 ft 389 kts 229°
2026-05-06 15:03 46.61806 11.96510 34893 ft 387 kts 229°
2026-05-06 15:04 46.58312 11.90553 34877 ft 387 kts 229°
2026-05-06 15:04 46.54811 11.84605 34872 ft 387 kts 229°
2026-05-06 15:05 46.51796 11.79501 34868 ft 386 kts 229°
2026-05-06 15:05 46.48296 11.73583 34878 ft 386 kts 229°
2026-05-06 15:06 46.44801 11.67676 34886 ft 386 kts 229°
2026-05-06 15:06 46.41305 11.61795 34889 ft 385 kts 229°
2026-05-06 15:07 46.37811 11.55922 34891 ft 384 kts 228°
2026-05-06 15:07 46.34317 11.50062 34891 ft 385 kts 228°
2026-05-06 15:08 46.30808 11.44196 34892 ft 385 kts 228°
2026-05-06 15:08 46.27309 11.38354 34894 ft 384 kts 228°
2026-05-06 15:09 46.23881 11.32431 34955 ft 384 kts 231°
2026-05-06 15:09 46.20701 11.26270 35224 ft 385 kts 232°
2026-05-06 15:09 46.19121 11.23139 35409 ft 385 kts 232°
2026-05-06 15:10 46.17536 11.20023 35561 ft 386 kts 232°
2026-05-06 15:10 46.15931 11.16907 35728 ft 387 kts 232°
2026-05-06 15:10 46.14310 11.13794 35886 ft 388 kts 232°
2026-05-06 15:10 46.12684 11.10696 36041 ft 389 kts 232°
2026-05-06 15:11 46.11045 11.07589 36201 ft 389 kts 232°
2026-05-06 15:11 46.09404 11.04483 36338 ft 390 kts 232°
2026-05-06 15:11 46.07764 11.01385 36482 ft 391 kts 232°
2026-05-06 15:11 46.06116 10.98278 36626 ft 391 kts 232°
2026-05-06 15:12 46.04465 10.95158 36751 ft 392 kts 232°
2026-05-06 15:12 46.02815 10.92035 36912 ft 392 kts 232°
2026-05-06 15:12 46.01161 10.88908 36928 ft 393 kts 232°
2026-05-06 15:13 45.97849 10.82653 36921 ft 393 kts 232°
2026-05-06 15:13 45.94533 10.76411 36927 ft 392 kts 232°
2026-05-06 15:14 45.91213 10.70182 36920 ft 393 kts 232°
2026-05-06 15:14 45.87916 10.64006 36916 ft 392 kts 232°
2026-05-06 15:15 45.84598 10.57795 36917 ft 392 kts 232°
2026-05-06 15:15 45.81283 10.51604 36912 ft 391 kts 231°
2026-05-06 15:16 45.77964 10.45439 36911 ft 391 kts 231°
2026-05-06 15:16 45.74643 10.39277 36906 ft 391 kts 231°
2026-05-06 15:17 45.71335 10.33142 36892 ft 390 kts 231°
2026-05-06 15:17 45.68024 10.27004 36874 ft 389 kts 231°
2026-05-06 15:18 45.64708 10.20894 36869 ft 389 kts 231°
2026-05-06 15:18 45.61408 10.14824 36863 ft 388 kts 231°
2026-05-06 15:19 45.58098 10.08740 36857 ft 387 kts 231°
2026-05-06 15:19 45.54787 10.02677 36848 ft 387 kts 231°
2026-05-06 15:20 45.51475 9.96630 36849 ft 387 kts 231°
2026-05-06 15:20 45.48170 9.90589 36840 ft 387 kts 231°
2026-05-06 15:21 45.44859 9.84549 36839 ft 387 kts 231°
2026-05-06 15:21 45.41530 9.78514 36941 ft 387 kts 231°
2026-05-06 15:22 45.38199 9.72481 36948 ft 388 kts 231°
2026-05-06 15:22 45.34898 9.66505 36948 ft 388 kts 231°
2026-05-06 15:23 45.31543 9.60433 36936 ft 388 kts 231°
2026-05-06 15:23 45.29895 9.57458 36818 ft 389 kts 231°
2026-05-06 15:23 45.28220 9.54438 36803 ft 389 kts 231°
2026-05-06 15:24 45.24870 9.48408 36807 ft 389 kts 231°
2026-05-06 15:24 45.21505 9.42374 36805 ft 390 kts 231°
2026-05-06 15:25 45.18140 9.36347 36808 ft 390 kts 231°
2026-05-06 15:25 45.14762 9.30324 36810 ft 391 kts 231°
2026-05-06 15:26 45.11379 9.24299 36807 ft 391 kts 231°
2026-05-06 15:26 45.07989 9.18270 36811 ft 391 kts 231°
2026-05-06 15:27 45.04598 9.12251 36815 ft 392 kts 230°
2026-05-06 15:27 45.01197 9.06227 36814 ft 392 kts 231°
2026-05-06 15:28 44.97812 9.00238 36817 ft 392 kts 231°
2026-05-06 15:28 44.94382 8.94178 36826 ft 392 kts 231°
2026-05-06 15:29 44.90993 8.88206 36821 ft 393 kts 231°
2026-05-06 15:29 44.87572 8.82192 36826 ft 393 kts 231°
2026-05-06 15:30 44.84146 8.76179 36836 ft 393 kts 231°
2026-05-06 15:30 44.80716 8.70188 36832 ft 393 kts 230°
2026-05-06 15:31 44.77282 8.64196 36834 ft 393 kts 231°
2026-05-06 15:31 44.73845 8.58202 36830 ft 394 kts 231°
2026-05-06 15:32 44.68676 8.49232 36836 ft 394 kts 230°
2026-05-06 15:32 44.65230 8.43262 36832 ft 394 kts 230°
2026-05-06 15:33 44.61772 8.37283 36838 ft 394 kts 230°
2026-05-06 15:33 44.58314 8.31326 36838 ft 394 kts 230°
2026-05-06 15:34 44.54855 8.25381 36829 ft 393 kts 230°
2026-05-06 15:34 44.51398 8.19437 36823 ft 393 kts 230°
2026-05-06 15:35 44.47942 8.13500 36827 ft 393 kts 230°
2026-05-06 15:35 44.44488 8.07592 36821 ft 392 kts 230°
2026-05-06 15:36 44.41037 8.01690 36814 ft 392 kts 230°
2026-05-06 15:36 44.37583 7.95796 36815 ft 392 kts 230°
2026-05-06 15:37 44.34145 7.89951 36816 ft 392 kts 230°
2026-05-06 15:37 44.30685 7.84085 36801 ft 392 kts 230°
2026-05-06 15:38 44.27195 7.78238 36790 ft 393 kts 226°
2026-05-06 15:38 44.23154 7.73119 36813 ft 393 kts 222°
2026-05-06 15:39 44.19052 7.68068 36805 ft 393 kts 222°
2026-05-06 15:39 44.14961 7.63015 36802 ft 393 kts 225°
2026-05-06 15:40 44.11919 7.58308 36814 ft 394 kts 229°
2026-05-06 15:40 44.08327 7.52544 36810 ft 395 kts 229°
2026-05-06 15:41 44.04720 7.46782 36826 ft 396 kts 229°
2026-05-06 15:41 44.01374 7.41456 36830 ft 396 kts 229°
2026-05-06 15:42 43.97777 7.35732 36831 ft 396 kts 229°
2026-05-06 15:42 43.94152 7.29967 36847 ft 396 kts 229°
2026-05-06 15:43 43.90524 7.24209 36833 ft 396 kts 229°
2026-05-06 15:43 43.86895 7.18461 36835 ft 396 kts 229°
2026-05-06 15:44 43.83259 7.12718 36844 ft 397 kts 229°
2026-05-06 15:44 43.79612 7.06977 36851 ft 397 kts 229°
2026-05-06 15:45 43.75960 7.01243 36857 ft 397 kts 229°
2026-05-06 15:45 43.72461 6.95351 36850 ft 397 kts 237°
2026-05-06 15:46 43.70164 6.88417 36851 ft 397 kts 246°
2026-05-06 15:46 43.68102 6.81389 36853 ft 397 kts 246°
2026-05-06 15:47 43.66017 6.74322 36857 ft 397 kts 246°
2026-05-06 15:47 43.63930 6.67263 36865 ft 397 kts 246°
2026-05-06 15:48 43.61835 6.60205 36866 ft 397 kts 246°
2026-05-06 15:48 43.59731 6.53154 36883 ft 398 kts 246°
2026-05-06 15:49 43.57625 6.46101 36882 ft 398 kts 245°
2026-05-06 15:49 43.55514 6.39050 36884 ft 398 kts 246°
2026-05-06 15:50 43.53401 6.32000 36896 ft 398 kts 245°
2026-05-06 15:50 43.51274 6.24953 36879 ft 399 kts 245°
2026-05-06 15:51 43.49145 6.17895 36879 ft 399 kts 245°
2026-05-06 15:51 43.47015 6.10847 36884 ft 399 kts 245°
2026-05-06 15:52 43.44884 6.03808 36890 ft 398 kts 245°
2026-05-06 15:52 43.42743 5.96770 36898 ft 399 kts 245°
2026-05-06 15:53 43.40589 5.89729 36910 ft 399 kts 245°
2026-05-06 15:53 43.38447 5.82734 36915 ft 400 kts 245°
2026-05-06 15:54 43.36276 5.75655 36920 ft 400 kts 245°
2026-05-06 15:54 43.34124 5.68658 36929 ft 400 kts 245°
2026-05-06 15:55 43.31953 5.61629 36933 ft 400 kts 245°
2026-05-06 15:55 43.29780 5.54597 36927 ft 400 kts 245°
2026-05-06 15:56 43.27610 5.47577 36926 ft 400 kts 245°
2026-05-06 15:56 43.25426 5.40559 36925 ft 400 kts 245°
2026-05-06 15:57 43.23238 5.33543 36925 ft 400 kts 245°
2026-05-06 15:57 43.21051 5.26515 36927 ft 400 kts 245°
2026-05-06 15:58 43.18855 5.19504 36929 ft 401 kts 245°
2026-05-06 15:58 43.16646 5.12495 36928 ft 401 kts 245°
2026-05-06 15:59 43.14435 5.05486 36931 ft 401 kts 245°
2026-05-06 15:59 43.12236 4.98521 36932 ft 401 kts 245°
2026-05-06 16:00 43.10014 4.91514 36934 ft 401 kts 245°
2026-05-06 16:00 43.07790 4.84518 36936 ft 401 kts 245°
2026-05-06 16:01 43.05201 4.77781 36932 ft 400 kts 233°
2026-05-06 16:01 43.01254 4.72406 36928 ft 402 kts 223°
2026-05-06 16:02 42.97062 4.67345 36928 ft 403 kts 223°
2026-05-06 16:02 42.92871 4.62284 36933 ft 402 kts 223°
2026-05-06 16:03 42.88677 4.57227 36935 ft 402 kts 223°
2026-05-06 16:03 42.84472 4.52170 36932 ft 403 kts 223°
2026-05-06 16:04 42.80292 4.47159 36936 ft 403 kts 223°
2026-05-06 16:04 42.76088 4.42116 36937 ft 403 kts 223°
2026-05-06 16:05 42.71875 4.37083 36941 ft 403 kts 223°
2026-05-06 16:05 42.67662 4.32058 36946 ft 403 kts 223°
2026-05-06 16:06 42.63446 4.27028 36951 ft 403 kts 223°
2026-05-06 16:06 42.59235 4.22016 36956 ft 403 kts 223°
2026-05-06 16:07 42.55015 4.17019 36958 ft 403 kts 223°
2026-05-06 16:07 42.50799 4.12021 36962 ft 402 kts 223°
2026-05-06 16:08 42.46582 4.07027 36958 ft 402 kts 223°
2026-05-06 16:08 42.42366 4.02053 36970 ft 402 kts 223°
2026-05-06 16:09 42.38152 3.97090 36957 ft 402 kts 223°
2026-05-06 16:09 42.33939 3.92133 36959 ft 401 kts 223°
2026-05-06 16:10 42.29756 3.87232 36961 ft 401 kts 223°
2026-05-06 16:10 42.25692 3.82130 36968 ft 398 kts 232°
2026-05-06 16:11 42.22470 3.76077 36965 ft 397 kts 235°
2026-05-06 16:11 42.19275 3.70005 36971 ft 397 kts 235°
2026-05-06 16:12 42.16071 3.63951 36960 ft 397 kts 235°
2026-05-06 16:12 42.12868 3.57903 36968 ft 396 kts 235°
2026-05-06 16:13 42.09667 3.51860 36959 ft 396 kts 235°
2026-05-06 16:13 42.06462 3.45827 36957 ft 396 kts 235°
2026-05-06 16:14 42.03255 3.39799 36953 ft 396 kts 235°
2026-05-06 16:14 42.00052 3.33785 36947 ft 395 kts 235°
2026-05-06 16:15 41.96844 3.27781 36939 ft 395 kts 235°
2026-05-06 16:15 41.93626 3.21788 36932 ft 395 kts 235°
2026-05-06 16:16 41.90428 3.15838 36925 ft 396 kts 235°
2026-05-06 16:16 41.87211 3.09849 36925 ft 396 kts 235°
2026-05-06 16:17 41.83996 3.03861 36931 ft 396 kts 235°
2026-05-06 16:17 41.80770 2.97867 36933 ft 396 kts 235°
2026-05-06 16:18 41.77541 2.91898 36926 ft 396 kts 235°
2026-05-06 16:18 41.74303 2.85930 36918 ft 396 kts 235°
2026-05-06 16:19 41.71066 2.79965 36921 ft 396 kts 235°
2026-05-06 16:19 41.67813 2.73996 36920 ft 397 kts 234°
2026-05-06 16:20 41.64454 2.68134 36922 ft 397 kts 233°
2026-05-06 16:20 41.61023 2.62333 36926 ft 398 kts 233°
2026-05-06 16:21 41.57600 2.56522 36930 ft 398 kts 233°
2026-05-06 16:21 41.54202 2.50705 36933 ft 397 kts 233°
2026-05-06 16:22 41.50807 2.44886 36930 ft 397 kts 233°
2026-05-06 16:22 41.47408 2.39081 36933 ft 397 kts 233°
2026-05-06 16:23 41.43999 2.33285 36934 ft 397 kts 233°
2026-05-06 16:23 41.40616 2.27545 36934 ft 396 kts 233°
2026-05-06 16:24 41.37213 2.21773 36955 ft 396 kts 233°
2026-05-06 16:24 41.33807 2.16002 36959 ft 396 kts 233°
2026-05-06 16:25 41.30960 2.09793 36957 ft 394 kts 249°
2026-05-06 16:25 41.29787 2.02658 36959 ft 396 kts 259°
2026-05-06 16:26 41.28964 1.95414 36958 ft 396 kts 259°
2026-05-06 16:26 41.28128 1.88175 36954 ft 397 kts 259°
2026-05-06 16:27 41.27280 1.80924 36949 ft 397 kts 259°
2026-05-06 16:27 41.26429 1.73694 36949 ft 396 kts 259°
2026-05-06 16:28 41.25577 1.66458 36941 ft 396 kts 259°
2026-05-06 16:28 41.24728 1.59214 36937 ft 396 kts 259°
2026-05-06 16:29 41.23874 1.51981 36933 ft 396 kts 259°
2026-05-06 16:29 41.23017 1.44805 36934 ft 396 kts 259°
2026-05-06 16:30 41.22435 1.39964 36935 ft 396 kts 258°
2026-05-06 16:30 41.21282 1.30341 36935 ft 396 kts 258°
2026-05-06 16:31 41.20408 1.23111 36935 ft 397 kts 258°
2026-05-06 16:31 41.19521 1.15881 36934 ft 397 kts 258°
2026-05-06 16:32 41.18638 1.08654 36938 ft 397 kts 258°
2026-05-06 16:32 41.17901 1.02637 36937 ft 397 kts 258°
2026-05-06 16:33 41.17009 0.95404 36935 ft 397 kts 258°
2026-05-06 16:34 41.15653 0.84554 36934 ft 397 kts 258°
2026-05-06 16:34 41.14744 0.77318 36922 ft 398 kts 258°
2026-05-06 16:35 41.13829 0.70090 36922 ft 398 kts 258°
2026-05-06 16:35 41.12759 0.61667 36921 ft 398 kts 258°
2026-05-06 16:36 41.11986 0.55594 36919 ft 399 kts 258°
2026-05-06 16:36 41.11056 0.48335 36921 ft 399 kts 258°
2026-05-06 16:37 41.10128 0.41080 36923 ft 400 kts 258°
2026-05-06 16:37 41.09201 0.33859 36920 ft 400 kts 258°
2026-05-06 16:38 41.08260 0.26583 36927 ft 401 kts 258°
2026-05-06 16:38 41.07309 0.19298 36927 ft 401 kts 258°
2026-05-06 16:39 41.06357 0.12078 36931 ft 402 kts 258°
2026-05-06 16:39 41.05389 0.04787 36934 ft 402 kts 258°
2026-05-06 16:40 41.04424 -0.02508 36936 ft 402 kts 258°
2026-05-06 16:40 41.03449 -0.09812 36939 ft 402 kts 258°
2026-05-06 16:41 41.02464 -0.17107 36941 ft 403 kts 258°
2026-05-06 16:41 41.01473 -0.24403 36946 ft 403 kts 258°
2026-05-06 16:42 41.00097 -0.31566 36946 ft 402 kts 250°
2026-05-06 16:42 40.98214 -0.38534 36947 ft 402 kts 250°
2026-05-06 16:43 40.96329 -0.45494 36948 ft 402 kts 250°
2026-05-06 16:43 40.94440 -0.52449 36951 ft 402 kts 250°
2026-05-06 16:44 40.92550 -0.59371 36947 ft 403 kts 250°
2026-05-06 16:44 40.90653 -0.66335 36952 ft 403 kts 250°
2026-05-06 16:45 40.88743 -0.73299 36952 ft 403 kts 250°
2026-05-06 16:45 40.86832 -0.80253 36950 ft 403 kts 250°
2026-05-06 16:46 40.84918 -0.87219 36951 ft 403 kts 250°
2026-05-06 16:46 40.82994 -0.94175 36954 ft 403 kts 250°
2026-05-06 16:47 40.81066 -1.01117 36952 ft 403 kts 250°
2026-05-06 16:47 40.79176 -1.07901 36955 ft 403 kts 250°
2026-05-06 16:48 40.77243 -1.14837 36959 ft 403 kts 250°
2026-05-06 16:48 40.75314 -1.21731 36958 ft 403 kts 250°
2026-05-06 16:49 40.73376 -1.28656 36956 ft 403 kts 250°
2026-05-06 16:49 40.71438 -1.35581 36954 ft 402 kts 250°
2026-05-06 16:49 40.70470 -1.39021 36408 ft 399 kts 250°
2026-05-06 16:50 40.69496 -1.42473 35040 ft 405 kts 250°
2026-05-06 16:50 40.68515 -1.45954 33779 ft 405 kts 251°
2026-05-06 16:50 40.67539 -1.49410 32773 ft 398 kts 251°
2026-05-06 16:50 40.66574 -1.52810 31943 ft 396 kts 251°
2026-05-06 16:51 40.65610 -1.56195 31068 ft 395 kts 251°
2026-05-06 16:51 40.64645 -1.59579 30119 ft 395 kts 251°
2026-05-06 16:51 40.63681 -1.62973 29020 ft 397 kts 251°
2026-05-06 16:51 40.62717 -1.66360 28263 ft 391 kts 251°
2026-05-06 16:52 40.61778 -1.69671 27700 ft 382 kts 251°
2026-05-06 16:52 40.60857 -1.72921 27073 ft 376 kts 251°
2026-05-06 16:52 40.59945 -1.76125 26468 ft 372 kts 251°
2026-05-06 16:52 40.59036 -1.79296 25856 ft 368 kts 251°
2026-05-06 16:53 40.58136 -1.82425 25273 ft 364 kts 251°
2026-05-06 16:53 40.57245 -1.85527 24693 ft 361 kts 251°
2026-05-06 16:53 40.56383 -1.88601 24308 ft 354 kts 252°
2026-05-06 16:53 40.55613 -1.91634 24225 ft 354 kts 253°
2026-05-06 16:54 40.54879 -1.94730 24159 ft 355 kts 255°
2026-05-06 16:54 40.54162 -1.97833 24082 ft 355 kts 255°
2026-05-06 16:54 40.53445 -2.00944 24007 ft 354 kts 255°
2026-05-06 16:54 40.52724 -2.04037 23926 ft 354 kts 255°
2026-05-06 16:55 40.51994 -2.07127 23861 ft 354 kts 254°
2026-05-06 16:55 40.51258 -2.10207 23787 ft 354 kts 254°
2026-05-06 16:55 40.50518 -2.13288 23714 ft 353 kts 254°
2026-05-06 16:55 40.49762 -2.16409 23525 ft 368 kts 254°
2026-05-06 16:56 40.48979 -2.19652 23224 ft 374 kts 254°
2026-05-06 16:56 40.48197 -2.22881 22649 ft 368 kts 254°
2026-05-06 16:56 40.47424 -2.26059 22105 ft 362 kts 254°
2026-05-06 16:56 40.46664 -2.29179 21577 ft 357 kts 254°
2026-05-06 16:57 40.45912 -2.32272 21072 ft 353 kts 254°
2026-05-06 16:57 40.45168 -2.35331 20580 ft 350 kts 254°
2026-05-06 16:57 40.44432 -2.38360 20113 ft 346 kts 254°
2026-05-06 16:57 40.43702 -2.41360 19648 ft 345 kts 254°
2026-05-06 16:58 40.42969 -2.44362 19196 ft 345 kts 254°
2026-05-06 16:58 40.42240 -2.47360 18749 ft 345 kts 253°
2026-05-06 16:58 40.41506 -2.50368 18300 ft 346 kts 253°
2026-05-06 16:58 40.40771 -2.53368 17821 ft 346 kts 253°
2026-05-06 16:59 40.40037 -2.56367 17371 ft 344 kts 253°
2026-05-06 16:59 40.39307 -2.59347 16928 ft 342 kts 253°
2026-05-06 16:59 40.38579 -2.62305 16453 ft 341 kts 253°
2026-05-06 16:59 40.37853 -2.65259 15991 ft 339 kts 253°
2026-05-06 17:00 40.37126 -2.68190 15517 ft 337 kts 253°
2026-05-06 17:00 40.36401 -2.71108 15037 ft 336 kts 253°
2026-05-06 17:00 40.35679 -2.74014 14550 ft 334 kts 253°
2026-05-06 17:00 40.34963 -2.76907 14058 ft 333 kts 253°
2026-05-06 17:01 40.34252 -2.79789 13605 ft 331 kts 253°
2026-05-06 17:01 40.33552 -2.82627 13101 ft 330 kts 253°
2026-05-06 17:01 40.32839 -2.85517 12586 ft 329 kts 253°
2026-05-06 17:01 40.32143 -2.88323 12059 ft 327 kts 253°
2026-05-06 17:02 40.31430 -2.91184 11535 ft 326 kts 253°
2026-05-06 17:02 40.30738 -2.93960 11016 ft 324 kts 253°
2026-05-06 17:02 40.30044 -2.96740 10725 ft 315 kts 253°
2026-05-06 17:02 40.29386 -2.99373 10602 ft 294 kts 253°
2026-05-06 17:03 40.28771 -3.01835 10375 ft 278 kts 253°
2026-05-06 17:03 40.28175 -3.04218 10090 ft 274 kts 253°
2026-05-06 17:03 40.27582 -3.06588 9907 ft 274 kts 253°
2026-05-06 17:03 40.26990 -3.08950 9781 ft 273 kts 253°
2026-05-06 17:04 40.26397 -3.11318 9646 ft 273 kts 255°
2026-05-06 17:04 40.26054 -3.13744 9515 ft 271 kts 268°
2026-05-06 17:04 40.26159 -3.16198 9368 ft 270 kts 279°
2026-05-06 17:04 40.26482 -3.18624 8970 ft 271 kts 280°
2026-05-06 17:05 40.26805 -3.21046 8533 ft 270 kts 280°
2026-05-06 17:05 40.27126 -3.23460 8084 ft 267 kts 280°
2026-05-06 17:05 40.27422 -3.25710 7666 ft 264 kts 280°
2026-05-06 17:05 40.27734 -3.28074 7236 ft 262 kts 280°
2026-05-06 17:06 40.28044 -3.30422 6802 ft 261 kts 281°
2026-05-06 17:06 40.28614 -3.32662 6372 ft 260 kts 296°
2026-05-06 17:06 40.29636 -3.34607 6003 ft 257 kts 309°
2026-05-06 17:06 40.30802 -3.36366 5944 ft 257 kts 309°
2026-05-06 17:07 40.31966 -3.38100 5830 ft 248 kts 315°
2026-05-06 17:07 40.33322 -3.39493 5386 ft 245 kts 321°
2026-05-06 17:07 40.34658 -3.40780 5041 ft 232 kts 320°
2026-05-06 17:07 40.35915 -3.42035 4737 ft 222 kts 319°
2026-05-06 17:08 40.37109 -3.43242 4442 ft 212 kts 319°
2026-05-06 17:08 40.38246 -3.44391 4163 ft 201 kts 319°
2026-05-06 17:08 40.39318 -3.45475 3923 ft 188 kts 319°
2026-05-06 17:08 40.40329 -3.46497 3659 ft 179 kts 319°
2026-05-06 17:09 40.41204 -3.47382 3469 ft 166 kts 319°
2026-05-06 17:09 40.42063 -3.48251 3255 ft 150 kts 320°
2026-05-06 17:09 40.42858 -3.49058 3050 ft 141 kts 319°
2026-05-06 17:09 40.43631 -3.49838 2841 ft 140 kts 322°
2026-05-06 17:10 40.44404 -3.50618 2670 ft 141 kts 323°
2026-05-06 17:10 40.45181 -3.51404 2468 ft 141 kts 323°
2026-05-06 17:10 40.45954 -3.52189 2321 ft 140 kts 323°
2026-05-06 17:10 40.46688 -3.52934 2160 ft 140 kts 323°
2026-05-06 17:11 40.47442 -3.53700 2002 ft 138 kts 324°
2026-05-06 17:11 40.48060 -3.54332 1980 ft 103 kts 322°
2026-05-06 17:11 40.48491 -3.54770 1980 ft 54 kts 322°
2026-05-06 17:11 40.48739 -3.55026 1982 ft 28 kts 313°
2026-05-06 17:12 40.48812 -3.55248 1984 ft 23 kts 288°
2026-05-06 17:12 40.48822 -3.55283 1982 ft 0 kts 291°
2026-05-06 17:13 40.48829 -3.55307 1982 ft 5 kts 292°
2026-05-06 17:13 40.48848 -3.55367 1981 ft 9 kts 294°
2026-05-06 17:13 40.48887 -3.55453 1982 ft 14 kts 308°
2026-05-06 17:14 40.48967 -3.55543 1980 ft 18 kts 321°
2026-05-06 17:14 40.49074 -3.55653 1983 ft 21 kts 322°
2026-05-06 17:14 40.49193 -3.55773 1981 ft 22 kts 322°
2026-05-06 17:14 40.49294 -3.55900 1982 ft 19 kts 290°
2026-05-06 17:15 40.49299 -3.56080 1980 ft 20 kts 265°
2026-05-06 17:15 40.49191 -3.56145 1980 ft 20 kts 178°
2026-05-06 17:15 40.49049 -3.56143 1980 ft 19 kts 180°
2026-05-06 17:15 40.48921 -3.56143 1980 ft 20 kts 179°
2026-05-06 17:16 40.48785 -3.56160 1981 ft 19 kts 218°
2026-05-06 17:16 40.48769 -3.56334 1982 ft 21 kts 270°
2026-05-06 17:16 40.48768 -3.56528 1981 ft 21 kts 270°
2026-05-06 17:16 40.48767 -3.56724 1982 ft 22 kts 270°
2026-05-06 17:17 40.48767 -3.56920 1983 ft 21 kts 270°
2026-05-06 17:17 40.48767 -3.57123 1980 ft 23 kts 270°
2026-05-06 17:17 40.48765 -3.57330 1984 ft 23 kts 270°
2026-05-06 17:17 40.48765 -3.57519 1982 ft 20 kts 269°
2026-05-06 17:18 40.48764 -3.57711 1980 ft 22 kts 270°
2026-05-06 17:18 40.48757 -3.57903 1980 ft 19 kts 244°
2026-05-06 17:18 40.48618 -3.57931 1980 ft 23 kts 172°
2026-05-06 17:18 40.48516 -3.57963 1980 ft 17 kts 266°
2026-05-06 17:19 40.48513 -3.58143 1980 ft 21 kts 269°
2026-05-06 17:19 40.48512 -3.58340 1980 ft 21 kts 270°
2026-05-06 17:19 40.48512 -3.58538 1980 ft 22 kts 270°
2026-05-06 17:19 40.48511 -3.58729 1980 ft 21 kts 270°
2026-05-06 17:20 40.48594 -3.58824 1980 ft 19 kts 359°
2026-05-06 17:20 40.48709 -3.58822 1980 ft 15 kts 360°
2026-05-06 17:20 40.48764 -3.58851 1984 ft 6 kts 257°
2026-05-06 17:20 40.48763 -3.58895 1980 ft 4 kts 274°
2026-05-06 17:21 40.48764 -3.58943 1980 ft 7 kts 270°
2026-05-06 17:21 40.48764 -3.58980 1980 ft 0 kts 270°
2026-05-06 17:21 40.48764 -3.58981 1980 ft 0 kts 270°